Wind_Speed
10 10 10 9 9 8 7 7 6 6 5 6 6 7 7 7 7 7 7 7 8 8 8 8 8 8 9 10 11 11 11 12 13 13 14 14 15 15 15 15 16 16 16
11 10 10 10 10 9 8 7 7 6 6 6 6 7 7 7 7 8 9 9 9 9 9 9 9 9 10 11 11 12 12 13 14 14 15 16 16 17 17 17 17 18 18
12 11 11 11 11 10 9 8 8 8 7 7 7 7 8 8 8 9 9 9 9 10 9 9 9 10 11 12 12 13 14 15 15 16 16 17 18 19 19 19 19 20 20
13 12 11 11 11 10 9 9 9 9 8 8 8 8 8 9 9 10 10 10 10 10 10 10 10 11 12 13 14 15 15 16 17 18 18 19 19 20 20 20 21 21 22
13 13 12 11 11 10 9 9 9 10 9 9 9 10 10 11 11 11 11 11 11 11 11 12 12 12 14 15 16 16 16 17 18 19 20 21 21 21 21 22 22 23 23
13 12 12 12 11 10 10 10 10 11 11 11 11 11 11 11 11 12 12 12 13 13 13 13 14 15 16 17 18 17 18 18 20 21 22 22 23 23 23 23 23 23 23
14 13 13 13 12 12 12 12 12 12 12 12 12 12 12 12 13 13 14 13 14 14 14 15 16 17 18 18 19 19 19 20 21 22 23 24 25 24 24 24 24 24 25
15 15 14 14 13 13 13 13 13 13 14 14 14 14 14 14 15 15 15 15 15 16 17 17 18 19 19 21 21 21 22 23 23 24 24 25 25 26 26 26 26 26 27
16 16 15 15 14 14 15 15 15 16 15 15 15 15 15 16 16 17 17 17 18 18 19 19 20 21 22 22 23 24 24 25 26 26 26 26 26 27 27 27 28 29 29
18 17 17 17 17 16 16 16 17 16 16 16 16 16 17 17 18 19 19 20 20 21 21 22 23 23 24 24 25 25 25 26 27 27 28 27 27 28 29 29 30 30 31
20 19 19 19 18 18 18 18 18 18 18 18 18 18 19 19 19 20 21 21 22 23 23 23 24 24 25 26 27 27 27 28 28 29 29 29 29 29 30 30 31 32 32
21 20 21 21 20 20 20 20 20 20 20 20 20 20 21 21 21 22 23 23 24 25 25 25 25 26 27 27 28 28 29 29 29 30 30 30 30 30 30 30 31 33 34
23 22 22 22 22 22 22 22 22 22 22 22 22 22 22 22 23 23 25 26 26 26 26 27 27 27 28 29 29 29 30 30 30 30 30 31 30 30 30 31 32 33 33
25 24 24 24 23 23 23 23 23 23 23 23 24 24 25 25 25 25 26 27 27 27 28 28 29 29 29 29 29 29 30 30 31 31 31 31 31 31 31 32 33 33 33
27 26 25 24 24 24 24 24 24 24 25 25 26 26 26 26 27 27 27 28 28 28 29 29 29 30 30 30 30 30 31 31 30 30 31 31 32 32 32 33 33 33 33
29 28 27 26 26 26 25 25 25 25 26 27 28 28 28 28 28 28 28 28 28 28 29 29 30 30 30 30 31 31 31 31 30 30 31 32 32 33 33 32 33 33 33
30 29 28 28 28 28 27 27 27 27 28 29 30 30 30 30 30 29 30 31 30 30 30 31 31 31 31 30 30 30 31 31 31 31 32 32 32 33 33 32 33 33 32
31 31 31 31 30 29 30 29 29 29 30 30 31 31 31 31 31 31 32 32 32 32 32 32 32 31 31 30 30 31 31 31 32 32 32 33 33 33 32 32 32 32 31
32 32 32 33 33 32 32 32 32 32 32 32 33 32 32 31 31 31 31 32 32 32 32 31 31 31 31 31 30 30 31 31 31 32 32 33 33 32 32 32 31 31 31
33 33 34 34 34 33 33 34 34 34 33 34 33 33 33 32 32 32 32 32 32 32 31 31 31 32 31 31 30 31 31 31 31 32 32 32 32 32 31 31 31 31 31
35 35 35 35 35 35 34 34 35 35 35 35 34 33 33 33 33 33 33 32 32 32 31 32 32 32 32 31 32 32 31 31 32 32 32 32 31 30 30 31 32 32 32
35 36 36 36 36 35 35 34 35 35 35 35 34 33 33 34 33 33 33 33 32 32 32 32 33 33 32 32 31 30 31 32 32 33 33 32 31 31 31 32 32 32 33
36 36 36 36 35 35 34 34 35 35 35 35 35 33 33 34 34 34 34 34 34 32 32 33 33 33 32 31 30 31 32 33 33 33 32 32 32 32 32 32 33 32 32
35 35 35 35 34 33 33 34 34 34 34 34 34 34 33 34 33 33 32 31 32 32 33 34 34 34 33 32 33 33 33 34 33 33 33 33 33 32 33 33 33 32 31
36 35 35 34 33 33 33 32 32 32 33 33 33 32 31 31 31 31 30 31 32 34 34 34 34 35 34 34 34 34 34 34 34 34 33 33 33 33 33 33 33 33 32
36 36 34 33 33 32 32 31 30 30 31 32 33 31 31 30 29 30 31 32 33 34 34 34 34 34 34 34 34 34 34 35 35 35 34 34 33 33 33 33 33 32 32
Wind_Direction
327 328 329 330 328 329 334 329 324 322 316 315 321 327 326 323 316 311 313 317 323 321 320 322 325 327 327 326 326 325 324 324 325 326 325 323 321 319 317 315 313 312 311
318 318 318 318 319 318 318 320 321 316 313 311 315 324 325 327 327 323 319 315 318 318 316 317 317 318 320 322 322 321 321 320 321 322 324 323 321 318 317 316 313 312 312
311 312 311 310 310 308 307 312 313 310 311 312 313 317 320 324 326 327 324 322 319 317 318 316 314 316 318 319 322 322 322 322 320 320 319 319 319 316 315 315 312 313 313
302 303 303 304 302 299 299 302 303 304 305 307 305 308 313 316 316 317 318 318 320 321 319 316 312 314 315 317 318 320 321 321 319 319 317 317 316 315 315 315 314 312 312
296 296 296 298 298 293 294 294 296 298 299 299 299 302 307 309 310 311 310 311 314 315 314 313 312 313 314 315 318 318 317 318 318 318 318 317 317 314 314 314 314 313 311
294 293 291 293 295 289 288 291 290 291 292 295 297 297 302 304 304 306 307 307 306 308 308 307 308 310 312 313 315 315 314 315 316 317 317 316 317 316 314 314 313 312 312
289 289 287 288 290 287 286 289 287 289 290 293 296 295 296 297 298 302 304 305 304 304 304 304 304 306 308 310 311 311 310 312 313 314 315 315 315 315 313 312 311 309 309
285 286 286 284 284 285 286 288 289 291 291 291 291 292 291 293 295 299 301 302 302 302 301 301 302 305 307 307 308 309 309 310 310 311 312 313 313 313 312 311 309 308 307
283 284 284 283 281 282 285 286 287 288 290 290 290 292 294 294 294 296 296 298 299 299 300 300 301 302 304 305 306 307 308 309 310 310 310 310 310 310 310 309 309 308 308
280 279 281 282 280 280 282 284 284 285 288 288 291 292 293 293 293 294 294 294 295 295 297 298 299 300 301 303 305 305 306 307 308 308 308 308 308 307 307 307 307 308 308
275 276 279 279 279 278 278 280 283 283 285 287 289 292 295 295 294 294 294 293 294 294 296 297 297 298 299 301 303 303 304 305 306 307 308 308 308 307 306 306 306 306 306
273 275 276 276 277 278 278 278 280 283 284 286 288 290 294 296 295 295 295 296 297 297 297 297 297 298 298 300 302 302 303 304 304 305 306 307 307 306 306 306 306 306 306
270 273 275 275 277 278 279 278 278 281 283 285 287 288 290 293 293 293 294 296 297 297 298 297 297 298 297 298 301 303 302 302 303 305 305 306 307 307 307 307 307 306 306
269 271 275 276 277 278 280 279 279 280 280 283 286 287 289 291 293 293 293 293 294 295 297 299 298 297 296 297 298 300 302 302 302 304 305 306 308 308 308 308 308 307 306
266 269 272 274 276 278 279 279 279 279 280 283 285 286 287 289 291 292 291 291 292 294 296 297 297 297 296 296 296 298 299 300 301 302 304 306 307 307 308 308 308 307 307
266 268 270 272 275 277 278 279 279 280 282 283 285 286 287 288 289 289 289 290 291 294 294 294 296 297 296 296 296 297 298 299 302 304 305 306 306 307 307 307 307 306 308
266 269 269 271 274 275 277 278 278 279 281 283 285 286 287 287 287 287 288 289 290 292 294 295 296 296 296 296 296 297 298 299 301 303 304 305 307 308 308 308 308 306 305
266 268 270 271 273 274 275 277 278 279 280 281 282 283 285 286 286 286 288 290 290 292 292 293 295 296 296 296 297 298 299 300 301 302 304 305 307 308 308 309 308 306 306
265 267 269 272 272 274 276 276 277 279 279 279 280 281 284 285 284 286 288 289 290 290 291 292 294 296 296 298 300 300 299 300 302 304 304 306 307 308 307 308 308 307 307
264 266 268 271 272 273 275 276 276 278 279 280 280 280 282 283 284 285 287 288 289 290 290 291 293 296 297 298 299 299 299 300 302 304 305 306 306 306 306 307 308 308 308
265 268 269 270 272 273 275 277 279 281 282 280 279 279 280 280 281 283 285 287 288 291 292 291 293 295 295 296 297 297 298 299 301 303 305 305 305 305 305 306 307 307 306
265 267 270 272 273 274 276 277 279 281 281 281 280 280 279 278 280 281 282 284 287 289 292 293 293 294 296 296 297 297 298 299 301 303 304 304 304 304 305 306 307 307 307
266 267 268 270 272 274 277 278 279 280 281 282 281 280 279 279 279 278 279 282 285 288 291 293 294 295 296 297 296 297 298 298 299 300 301 302 302 302 303 304 305 306 305
267 268 269 269 271 272 275 277 278 277 278 280 280 278 277 278 278 279 282 285 285 287 290 292 294 295 296 295 295 296 296 297 298 299 299 299 299 299 300 302 303 303 303
266 267 268 269 271 273 274 274 275 275 277 279 279 277 278 279 280 280 281 281 284 288 290 292 293 295 294 294 295 296 297 298 299 300 299 298 297 297 298 300 302 303 302
267 268 268 268 270 273 273 273 275 278 282 282 280 279 279 278 278 278 279 281 284 287 288 290 293 294 294 294 294 295 297 299 300 300 299 298 297 297 298 300 301 302 302
Height
5894 5893 5892 5891 5890 5889 5889 5888 5887 5887 5886 5886 5885 5884 5884 5883 5882 5881 5881 5880 5879 5879 5878 5877 5876 5876 5875 5874 5873 5872 5870 5869 5868 5867 5865 5863 5861 5860 5858 5856 5855 5853 5851
5893 5892 5891 5890 5889 5888 5888 5887 5886 5886 5885 5885 5884 5883 5883 5882 5880 5880 5879 5878 5878 5877 5876 5875 5875 5874 5873 5872 5871 5870 5868 5867 5866 5864 5863 5861 5859 5857 5855 5853 5851 5849 5848
5891 5890 5889 5888 5887 5886 5886 5885 5885 5884 5884 5883 5883 5882 5881 5880 5879 5879 5878 5877 5876 5875 5874 5873 5873 5872 5871 5870 5869 5868 5866 5865 5863 5861 5860 5858 5856 5854 5851 5849 5847 5845 5843
5889 5888 5887 5886 5885 5884 5884 5883 5883 5882 5882 5881 5881 5880 5880 5879 5878 5877 5876 5875 5874 5873 5872 5871 5871 5870 5869 5868 5866 5865 5863 5862 5860 5858 5856 5854 5852 5849 5847 5845 5842 5840 5838
5886 5886 5885 5884 5883 5883 5882 5882 5881 5880 5880 5879 5879 5878 5878 5877 5876 5875 5875 5873 5872 5871 5870 5869 5868 5867 5866 5865 5863 5862 5860 5858 5856 5854 5852 5850 5847 5845 5843 5840 5838 5835 5833
5883 5883 5883 5882 5881 5880 5880 5879 5879 5878 5878 5877 5876 5876 5875 5875 5874 5873 5872 5871 5870 5869 5868 5867 5865 5864 5863 5862 5860 5858 5856 5854 5852 5850 5848 5845 5842 5840 5837 5835 5832 5830 5828
5880 5880 5880 5879 5878 5878 5877 5877 5876 5876 5875 5875 5874 5873 5873 5872 5871 5870 5869 5868 5867 5866 5865 5863 5862 5861 5859 5858 5856 5854 5852 5849 5847 5845 5843 5840 5837 5835 5832 5829 5827 5824 5822
5877 5876 5876 5876 5875 5875 5874 5874 5874 5873 5872 5872 5871 5870 5869 5869 5868 5867 5866 5864 5863 5862 5861 5859 5858 5857 5855 5853 5851 5849 5847 5845 5843 5840 5838 5835 5832 5829 5826 5824 5821 5818 5815
5873 5873 5872 5872 5872 5871 5871 5870 5870 5869 5869 5868 5867 5866 5866 5865 5864 5863 5861 5860 5859 5858 5857 5855 5854 5852 5851 5848 5847 5845 5842 5840 5837 5834 5832 5829 5826 5823 5820 5818 5814 5811 5808
5869 5869 5868 5868 5867 5867 5867 5866 5865 5865 5865 5864 5863 5862 5861 5860 5859 5858 5857 5856 5855 5854 5852 5850 5849 5847 5845 5843 5841 5839 5836 5834 5831 5828 5826 5823 5820 5816 5813 5810 5807 5804 5801
5864 5864 5863 5863 5862 5862 5861 5861 5861 5860 5860 5859 5858 5858 5856 5855 5854 5853 5852 5850 5849 5848 5846 5845 5843 5841 5839 5837 5835 5833 5830 5827 5825 5822 5819 5816 5813 5809 5806 5803 5800 5797 5793
5858 5858 5858 5857 5857 5856 5856 5855 5855 5855 5854 5853 5853 5852 5851 5850 5849 5848 5846 5845 5843 5842 5840 5838 5836 5834 5832 5830 5828 5826 5823 5821 5818 5815 5812 5808 5805 5802 5799 5795 5792 5788 5785
5851 5851 5851 5851 5851 5850 5849 5849 5849 5848 5848 5847 5846 5846 5845 5844 5843 5841 5840 5838 5836 5835 5833 5831 5829 5827 5825 5823 5821 5818 5816 5813 5810 5807 5804 5801 5798 5794 5791 5788 5784 5780 5776
5844 5844 5844 5844 5844 5843 5843 5842 5842 5842 5841 5841 5840 5839 5838 5837 5836 5834 5833 5831 5830 5828 5826 5824 5822 5820 5818 5816 5813 5811 5808 5805 5802 5800 5797 5794 5790 5787 5783 5780 5776 5772 5768
5837 5837 5837 5837 5837 5836 5835 5835 5835 5835 5834 5834 5833 5832 5831 5830 5828 5827 5825 5824 5822 5821 5819 5817 5815 5812 5810 5808 5805 5803 5800 5797 5794 5791 5788 5785 5782 5778 5775 5771 5767 5763 5760
5829 5829 5829 5829 5829 5829 5828 5828 5827 5827 5827 5826 5825 5824 5823 5822 5821 5819 5818 5816 5814 5813 5810 5808 5806 5804 5802 5799 5797 5794 5792 5789 5786 5782 5780 5777 5773 5769 5766 5762 5758 5755 5751
5820 5821 5821 5821 5821 5821 5821 5820 5820 5820 5819 5818 5817 5816 5815 5814 5812 5811 5809 5808 5806 5804 5802 5800 5798 5795 5793 5791 5788 5786 5783 5780 5778 5774 5771 5768 5764 5761 5757 5753 5750 5746 5742
5812 5812 5813 5813 5813 5813 5813 5812 5812 5811 5811 5810 5809 5808 5806 5805 5804 5803 5801 5799 5797 5795 5793 5791 5789 5786 5784 5782 5780 5777 5774 5772 5769 5766 5762 5759 5755 5752 5748 5744 5741 5737 5734
5803 5804 5804 5804 5804 5804 5804 5803 5803 5803 5802 5801 5800 5799 5798 5796 5795 5794 5792 5791 5789 5787 5785 5783 5781 5778 5775 5773 5771 5768 5766 5763 5760 5757 5753 5750 5746 5743 5739 5736 5732 5729 5725
5793 5794 5794 5794 5794 5794 5794 5794 5794 5793 5792 5792 5790 5790 5789 5787 5786 5785 5783 5781 5780 5778 5776 5774 5772 5769 5767 5764 5762 5759 5757 5754 5751 5748 5745 5741 5738 5734 5730 5727 5724 5720 5717
5783 5784 5784 5784 5785 5785 5784 5784 5784 5783 5782 5781 5781 5779 5778 5777 5776 5775 5774 5772 5771 5769 5767 5765 5763 5760 5758 5755 5753 5751 5748 5745 5742 5739 5736 5732 5729 5725 5722 5719 5715 5712 5708
5773 5774 5774 5775 5775 5775 5775 5774 5774 5773 5772 5771 5770 5769 5768 5767 5767 5766 5765 5763 5761 5759 5757 5755 5753 5750 5747 5745 5743 5740 5738 5736 5733 5730 5726 5723 5720 5717 5713 5710 5707 5703 5700
5762 5763 5764 5765 5765 5765 5765 5764 5764 5763 5761 5760 5759 5758 5758 5757 5757 5756 5755 5753 5752 5750 5747 5746 5744 5741 5738 5734 5733 5731 5729 5726 5723 5720 5717 5714 5711 5708 5704 5701 5698 5694 5691
5752 5753 5754 5754 5755 5755 5755 5754 5753 5752 5751 5750 5749 5747 5747 5746 5746 5746 5745 5743 5742 5740 5738 5736 5734 5731 5729 5727 5724 5721 5719 5716 5713 5710 5707 5704 5701 5698 5695 5692 5689 5685 5682
5742 5743 5743 5744 5744 5744 5744 5743 5743 5742 5741 5740 5738 5736 5735 5735 5735 5735 5734 5733 5732 5731 5729 5726 5724 5722 5720 5717 5714 5712 5709 5705 5702 5700 5697 5694 5691 5688 5685 5682 5679 5676 5672
5732 5732 5733 5733 5734 5734 5733 5733 5733 5732 5732 5731 5729 5728 5727 5726 5725 5725 5724 5723 5722 5721 5719 5717 5715 5712 5710 5707 5705 5702 5699 5696 5693 5690 5687 5684 5681 5678 5675 5672 5669 5666 5663